SnugLite
1 43784U 18099AC 22293.46188277 .00003771 00000-0 32817-3 0 9996
2 43784 97.6045 356.6412 0013892 202.2451 157.8170 14.97454577211764
ITASat 1
1 43786U 18099AE 22293.12608245 .00003033 00000-0 26727-3 0 9997
2 43786 97.6104 357.1770 0014159 203.9963 156.0601 14.97115538211703
EAGLET 1
1 43790U 18099AJ 22293.47805740 .00002368 00000-0 20940-3 0 9990
2 43790 97.6111 358.0642 0012076 205.0562 155.0076 14.97201017211497
ESEO
1 43792U 18099AL 22293.39929096 .00001910 00000-0 17308-3 0 9990
2 43792 97.6051 357.0101 0012394 203.6324 156.4330 14.96459419211515
CSIM
1 43793U 18099AM 22293.16463104 .00003914 00000-0 32379-3 0 9990
2 43793 97.6135 358.7276 0011676 202.1818 157.8902 14.99429534211567
Astrocast 0.1
1 43798U 18099AS 22293.44526030 .00003986 00000-0 33765-3 0 9993
2 43798 97.6103 358.7114 0012095 185.5832 174.5257 14.98492771211824
JO-97
1 43803U 18099AX 22293.43182433 .00002711 00000-0 23554-3 0 9994
2 43803 97.6065 357.2747 0014039 204.6107 155.4447 14.97754583211776
Suomi 100
1 43804U 18099AY 22293.45904449 .00003571 00000-0 30971-3 0 9992
2 43804 97.6061 357.1943 0014130 201.3627 158.7007 14.97618844211781
Al Farabi 2
1 43805U 18099AZ 22293.85994179 .00005372 00000-0 45424-3 0 9996
2 43805 97.6076 358.2261 0014324 199.2014 160.8663 14.98390836211874
CHOMPTT
1 43855U 18104G 22293.55428870 .00008336 00000-0 28735-3 0 9994
2 43855 85.0342 327.6402 0016618 128.7819 231.4915 15.29690547213831
ISAT
1 43879U 18111D 22293.54904950 .00004338 00000-0 36451-3 0 9997
2 43879 97.6529 196.8680 0009954 255.6284 104.3834 14.98781349208409
UWE-4
1 43880U 18111E 22293.47390185 .00003550 00000-0 29838-3 0 9996
2 43880 97.6550 197.5733 0010096 256.1830 103.8269 14.98886110208424
Sparrow
1 43881U 18111F 22293.27678793 .00003865 00000-0 32274-3 0 9996
2 43881 97.6562 197.6577 0009998 252.7477 107.2652 14.99089771208404
Lume 1
1 43908U 18111AJ 22293.24529677 .00012045 00000-0 37906-3 0 9996
2 43908 97.1714 177.1762 0017081 355.9565 4.1536 15.32940603212491
FO-99
1 43937U 19003F 22293.63847501 .00015820 00000-0 48046-3 0 9992
2 43937 97.1207 322.2822 0020739 68.5448 291.8005 15.33938236209145
MYSat 1
1 44045U 18092F 22293.11711867 .00118846 00000-0 88641-3 0 9995
2 44045 51.6248 164.7557 0010316 203.1767 156.8767 15.71808130207347
AstroCast 0.2
1 44083U 19018F 22293.37691818 .00016690 00000-0 57656-3 0 9993
2 44083 97.3082 349.9757 0009864 49.1218 311.0876 15.29958806197563
AISTechSat 3
1 44103U 19018AB 22293.13720250 .00009597 00000-0 33420-3 0 9994
2 44103 97.2944 349.9797 0012617 58.2051 302.0417 15.29803291197694
AISat 1
1 44104U 19018AC 22293.48874190 .00009526 00000-0 25027-3 0 9992
2 44104 97.3896 17.2086 0050708 46.2398 314.3026 15.37489289198792
Prox-1
1 44339U 19036A 22293.80608860 .00004475 00000-0 95252-3 0 9992
2 44339 23.9995 121.7251 0010209 150.9873 209.1187 14.55856493176727
Oculus-ASR
1 44348U 19036K 22293.58060623 .00087259 -48488-5 60489-3 0 9999
2 44348 28.4994 39.8650 0183256 291.1361 66.9745 15.53420012183899
NO-104
1 44354U 19036R 22293.57330562 .00094029 -44431-5 59718-3 0 9997
2 44354 28.5236 21.9299 0172153 316.4291 42.2829 15.57122778184066
Move-IIb
1 44398U 19038N 22293.58077709 .00022877 00000-0 10010-2 0 9990
2 44398 97.6401 264.4040 0021713 60.4201 299.9187 15.21847447182047
SONATE
1 44400U 19038Q 22293.87195732 .00007616 00000-0 39866-3 0 9998
2 44400 97.6539 263.1206 0024763 62.8555 297.5194 15.15853497181922
BeeSat 9
1 44412U 19038AC 22293.84997044 .00011891 00000-0 56793-3 0 9992
2 44412 97.6505 264.3045 0021617 64.4693 295.8773 15.18987071181718
JAISAT-1
1 44419U 19038F 22293.46743098 .00011157 00000-0 52645-3 0 9992
2 44419 97.6503 264.8510 0020580 63.0343 297.2989 15.19444541182021
LightSail-2
1 44420U 19036AC 22293.55267398 .00265724 00000-0 16006-1 0 9996
2 44420 23.9950 19.3182 0015183 60.9831 299.2193 15.08338673175746
Taurus 1
1 44530U 19059C 22293.55563002 .00003986 00000-0 10925-2 0 9999
2 44530 98.5502 33.3250 0014534 102.7435 257.5317 14.47610929163948
Duchifat 3
1 44854U 19089C 22293.82527775 .00006318 00000-0 47840-3 0 9997
2 44854 36.9650 76.6637 0006154 167.6262 344.3731 15.01997692156788
OPS-SAT
1 44878U 19092F 22293.45681991 .00011439 00000-0 49779-3 0 9990
2 44878 97.4803 116.5282 0010805 264.5520 95.4484 15.22354333157195
TO-108
1 44881U 19093C 22293.77380775 .00001012 00000-0 13431-3 0 9998
2 44881 97.8840 11.1390 0015854 134.4265 225.8236 14.81881400153334
FloripaSat 1
1 44885U 19093G 22293.81431151 .00003346 00000-0 41123-3 0 9993
2 44885 97.8892 12.8216 0015107 139.7905 220.4387 14.83625055153433
RS-44
1 44909U 19096E 22293.36092377 .00000037 00000-0 10169-3 0 9996
2 44909 82.5198 147.3146 0217959 27.9159 333.3436 12.79716007131485
BY70-2
1 45857U 20042B 22293.79880059 .00011922 00000-0 15239-2 0 9998
2 45857 97.9478 9.5175 0010995 73.5662 286.6720 14.81498080124006
UPMSat 2
1 46276U 20061E 22293.50244942 .00004343 00000-0 20974-3 0 9991
2 46276 97.3799 1.4595 0003009 94.6785 265.4793 15.19168750117857
AmicalSat
1 46287U 20061R 22293.19293727 .00006027 00000-0 33564-3 0 9993
2 46287 97.4347 359.9611 0002402 171.4946 188.6327 15.13981059117339
SALSAT
1 46495U 20068K 22293.37863815 .00002999 00000-0 21468-3 0 9996
2 46495 97.7403 234.8137 0015363 208.5501 151.4886 15.05108071112978
BY70-3
1 46839U 20079N 22293.86965477 .00040958 00000-0 77066-3 0 9993
2 46839 97.1847 4.6908 0004724 224.2428 246.2370 15.48429959109602
CAPE 3
1 47309U 21002A 22293.44986046 .00014161 00000-0 52351-3 0 9999
2 47309 60.6810 253.6239 0040028 56.6931 303.7981 15.27265573 97527
AO-109
1 47311U 21002C 22293.40343563 .00011456 00000-0 42463-3 0 9996
2 47311 60.6839 251.2320 0036361 56.5605 303.8952 15.27484195 97531
MiTEE 1
1 47314U 21002F 22293.56247714 .00030545 00000-0 87986-3 0 9996
2 47314 60.6798 239.7786 0033333 50.9665 309.4387 15.35060795 97769
ExoCube 2
1 47319U 21002L 22293.43921344 .00012165 00000-0 45628-3 0 9990
2 47319 60.6818 252.4600 0037621 57.4776 302.9938 15.26998379 97480
UVSQ-SAT
1 47438U 21006AB 22293.39879575 .00006455 00000-0 32760-3 0 9997
2 47438 97.4233 349.8555 0011184 193.7008 166.3924 15.17204346 96210
YUSAT 1
1 47439U 21006AC 22293.38970521 .00008397 00000-0 41639-3 0 9992
2 47439 97.4238 350.0556 0010915 193.4128 166.6817 15.17924961 96229
SOMP 2b
1 47445U 21006AJ 22293.16303741 .00006762 00000-0 34729-3 0 9995
2 47445 97.4209 349.1784 0010764 198.7876 161.2961 15.16772096 96169
IDEASSat
1 47458U 21006AX 22293.42236495 .00006242 00000-0 32245-3 0 9993
2 47458 97.4295 350.0431 0010031 195.5217 164.5710 15.16605081 96199
CubeSX-Sirius-HSE
1 47951U 21022V 22293.91475903 .00006831 00000-0 43917-3 0 9994
2 47951 97.5142 190.7736 0022635 78.7440 344.5860 15.08513465 86908
CubeSX-HSE
1 47952U 21022W 22293.90969117 .00006338 00000-0 40721-3 0 9991
2 47952 97.5145 190.7964 0022729 77.2765 53.0827 15.08567083 86903
KSU-Cubesat
1 47954U 21022Y 22293.23073628 .00004718 00000-0 30167-3 0 9995
2 47954 97.5155 190.2905 0022222 79.1811 281.1917 15.08881648 86536
GRBAlpha
1 47959U 21022AD 22293.56544773 .00006445 00000-0 41366-3 0 9992
2 47959 97.5147 190.5082 0022526 78.2409 6.8396 15.08599100 85677
Orbicraft-Zorkiy
1 47960U 21022AE 22293.53273471 .00008106 00000-0 51593-3 0 9994
2 47960 97.5175 190.6718 0021974 79.6330 43.4054 15.08836252 86368
